Regional Weather Roundup
Issued by NWS Raleigh/Durham, NC

Current Version | Previous Version | Graphics & Text | Print | Product List | Glossary On
Versions: 1 2 3 4 5 6 7 8 9 10 11 12 13 14 15 16 17 18 19 20 21 22 23 24 25 26 27 28 29 30 31 32 33 34 35 36 37 38 39 40 41 42 43 44 45 46 47 48 49 50
000
ASUS42 KRAH 282210
RWRRAH
NORTH CAROLINA WEATHER ROUNDUP
NATIONAL WEATHER SERVICE RALEIGH NC
500 PM EST FRI NOV 28 2014

NOTE: "FAIR" INDICATES FEW OR NO CLOUDS BELOW 12,000 FEET WITH NO
SIGNIFICANT WEATHER AND/OR OBSTRUCTIONS TO VISIBILITY.

NCZ001-053-055-056-065-067-282300-
WESTERN NORTH CAROLINA

CITY           SKY/WX    TMP DP  RH WIND       PRES   REMARKS
ASHEVILLE      CLEAR     40  19  43 N5        30.23S
JEFFERSON      CLOUDY    33  11  40 CALM      30.18S
MORGANTON      PTCLDY    44  18  36 CALM      30.29S
HICKORY        PTCLDY    43  17  35 CALM      30.25S
RUTHERFORDTON  CLEAR     44  18  35 SE3       30.26S
MOUNT AIRY     CLEAR     39  19  44 CALM      30.28S
BOONE          PTCLDY    32  19  59 W5        30.20S WCI  27
$$

NCZ021-022-025-041-071-084-088-282300-
CENTRAL NORTH CAROLINA

CITY           SKY/WX    TMP DP  RH WIND       PRES   REMARKS
CHARLOTTE      PTCLDY    43  16  33 S3        30.28S
GREENSBORO     MOCLDY    39  20  46 NW5       30.26S
WINSTON-SALEM  CLEAR     40  19  43 NW6       30.28S
RALEIGH-DURHAM PTCLDY    41  20  43 CALM      30.30R
FORT BRAGG     CLEAR     42  20  40 W5        30.30S
FAYETTEVILLE   CLEAR     44  21  40 NW3       30.30S
BURLINGTON     CLEAR     40  17  39 CALM      30.28S
LAURINBURG     CLEAR     43  21  41 NW3       30.31S
$$

NCZ011-015-027-028-043-044-047-080-103-282300-
NORTHEASTERN NORTH CAROLINA

CITY           SKY/WX    TMP DP  RH WIND       PRES   REMARKS
ROCKY MT-WILSO CLEAR     41  20  43 W3        30.30F
GREENVILLE     CLEAR     41  23  48 CALM      30.30F
WASHINGTON     CLEAR     40  23  50 CALM      30.31R
ELIZABETH CITY CLEAR     40  22  48 W7        30.31R
MANTEO         PTCLDY    40  24  54 NW3       30.30R
CAPE HATTERAS  CLEAR     40  23  50 N7        30.29R
$$

NCZ078-087-090-091-093-098-101-282300-
SOUTHEASTERN NORTH CAROLINA

CITY           SKY/WX    TMP DP  RH WIND       PRES   REMARKS
LUMBERTON      CLEAR     44  24  45 CALM      30.31R
GOLDSBORO      CLEAR     42  24  47 CALM      30.28F
KENANSVILLE    CLEAR     40  25  54 CALM      30.31F
NEW BERN       CLEAR     43  23  45 NW6       30.32R
CHERRY POINT   CLEAR     43  22  43 NW7       30.31R
BEAUFORT       CLEAR     42  25  50 NW8       30.31R
JACKSONVILLE   CLEAR     42  23  46 NW7       30.31R
WILMINGTON     CLEAR     44  23  43 N3        30.31S
$$



USA.gov is the U.S. government's official web portal to all federal, state and local government web resources and services.